1507518001.13,64215,10.13,72760.5,-9.17,-9.71,-9.61,0,*5A
1507518002.4,64216,10.13,72762.3,-9.17,-9.61,-9.61,0,*58
1507518003.67,64217,10.13,72764.5,-9.17,-9.61,-9.61,0,*59
1507518004.95,64218,10.13,72766.3,-9.15,-9.61,-9.61,0,*54
1507518006.22,64219,10.13,72760.8,-9.17,-9.61,-9.61,0,*57
1507518007.48,64220,10.13,72758.0,-9.17,-9.71,-9.61,0,*5C
1507518008.74,64221,10.13,72764.8,-9.17,-9.71,-9.61,0,*5D
1507518009.94,64222,10.13,72760.8,-9.19,-9.67,-9.67,0,*51
1507518011.19,64223,10.13,72760.0,-9.17,-9.57,-9.71,0,*5A
1507518012.44,64224,10.13,72766.0,-9.17,-9.61,-9.71,0,*58
1507518013.7,64225,10.13,72772.0,-9.17,-9.71,-9.61,0,*59
1507518014.95,64226,10.13,72770.0,-9.17,-9.71,-9.61,0,*5A
1507518016.23,64227,10.13,72766.5,-9.17,-9.61,-9.57,0,*5F
1507518017.5,64228,10.13,72764.3,-9.17,-9.61,-9.61,0,*55
1507518018.77,64229,10.13,72764.0,-9.15,-9.61,-9.61,0,*56
1507518020.05,64230,10.13,72762.0,-9.17,-9.61,-9.61,0,*5C
1507518021.32,64231,10.13,72758.8,-9.17,-9.57,-9.61,0,*58
1507518022.57,64232,10.13,72762.8,-9.15,-9.71,-9.57,0,*58
1507518023.82,64233,10.13,72770.3,-9.15,-9.61,-9.71,0,*5C
1507518025.09,64234,10.13,72754.8,-9.15,-9.61,-9.61,0,*5A
1507518026.36,64235,10.13,72756.3,-9.15,-9.61,-9.61,0,*5B
1507518027.64,64236,10.13,72756.5,-9.17,-9.61,-9.61,0,*5A
1507518028.89,64237,10.13,72762.3,-9.15,-9.71,-9.61,0,*58
1507518030.17,64238,10.13,72764.0,-9.15,-9.61,-9.61,0,*56
1507518031.44,64239,10.13,72754.0,-9.15,-9.61,-9.61,0,*57
1507518032.71,64240,10.13,72766.5,-9.17,-9.61,-9.61,0,*5B
1507518033.98,64241,10.13,72768.0,-9.15,-9.61,-9.57,0,*5D
1507518035.26,64242,10.13,72772.5,-9.17,-9.61,-9.61,0,*59
1507518036.53,64243,10.13,72772.3,-9.15,-9.61,-9.61,0,*5A
1507518037.8,64244,10.13,72772.0,-9.15,-9.61,-9.61,0,*5D
1507518039.07,64245,10.13,72766.5,-9.15,-9.61,-9.61,0,*5C
1507518040.34,64246,10.13,72760.3,-9.15,-9.61,-9.61,0,*5F
1507518041.59,64247,10.13,72770.5,-9.15,-9.61,-9.71,0,*5F
1507518042.87,64248,10.13,72770.3,-9.15,-9.61,-9.61,0,*51
1507518044.14,64249,10.13,72772.0,-9.15,-9.61,-9.61,0,*50
1507518045.41,64250,10.13,72762.0,-9.17,-9.61,-9.57,0,*5F
1507518046.68,64251,10.13,72756.0,-9.15,-9.61,-9.61,0,*59
1507518047.94,64252,10.13,72758.0,-9.15,-9.71,-9.61,0,*5B
1507518049.19,64253,10.13,72768.3,-9.15,-9.71,-9.61,0,*5A
1507518050.45,64254,10.13,72764.8,-9.15,-9.71,-9.61,0,*5D
1507518051.7,64255,10.13,72760.0,-9.17,-9.61,-9.75,0,*5A
1507518052.97,64256,10.13,72758.5,-9.17,-9.61,-9.61,0,*5C
1507518054.24,64257,10.13,72760.0,-9.17,-9.61,-9.57,0,*58
1507518055.52,64258,10.13,72760.5,-9.15,-9.61,-9.61,0,*50
1507518056.79,64259,10.13,72764.5,-9.15,-9.61,-9.57,0,*54
1507518058.02,64260,10.13,72774.3,-9.15,-9.71,-9.71,0,*5B
1507518059.22,64261,10.13,72774.0,-9.13,-9.67,-9.71,0,*5B
1507518060.47,64262,10.13,72768.3,-9.15,-9.61,-9.71,0,*58
1507518061.74,64263,10.13,72766.8,-9.15,-9.61,-9.61,0,*58
1507518063.02,64264,10.13,72780.5,-9.15,-9.61,-9.61,0,*5F
1507518064.24,64265,10.13,72790.3,-9.13,-9.67,-9.57,0,*5B
1507518065.5,64266,10.13,72792.8,-9.15,-9.71,-9.61,0,*5C
1507518066.75,64267,10.13,72780.8,-9.15,-9.71,-9.61,0,*5D
1507518068.0,64268,10.06,72768.8,-9.13,-9.57,-9.53,0,*51
1507518069.22,64269,10.13,72772.0,-9.13,-9.57,-9.67,0,*57
1507518070.45,64270,10.13,72768.3,-9.13,-9.53,-9.67,0,*5B
1507518071.67,64271,10.13,72772.8,-9.13,-9.57,-9.67,0,*5E
1507518072.94,64272,10.13,72766.8,-9.11,-9.57,-9.53,0,*58
1507518074.19,64273,10.13,72760.3,-9.13,-9.53,-9.57,0,*5B
1507518075.43,64274,10.13,72762.8,-9.13,-9.57,-9.57,0,*58
1507518076.69,64275,10.13,72768.8,-9.15,-9.71,-9.61,0,*5E
1507518077.93,64276,10.13,72764.0,-9.13,-9.57,-9.57,0,*5A
1507518079.16,64277,10.13,72758.3,-9.13,-9.67,-9.57,0,*58
1507518080.4,64278,10.13,72766.5,-9.13,-9.57,-9.57,0,*54
1507518081.65,64279,10.13,72760.3,-9.13,-9.57,-9.53,0,*51
1507518082.87,64280,10.13,72762.0,-9.13,-9.67,-9.53,0,*54
1507518084.1,64281,10.13,72752.3,-9.13,-9.67,-9.57,0,*51
1507518085.32,64282,10.13,72748.8,-9.13,-9.67,-9.57,0,*52
1507518086.52,64283,10.13,72746.8,-9.13,-9.67,-9.67,0,*50
1507518087.77,64284,10.13,72760.8,-9.13,-9.57,-9.53,0,*53
1507518089.02,64285,10.13,72760.5,-9.13,-9.53,-9.57,0,*52
1507518090.26,64286,10.13,72762.0,-9.13,-9.57,-9.57,0,*55
1507518091.53,64287,10.13,72764.8,-9.11,-9.57,-9.57,0,*56
1507518092.78,64288,10.13,72766.5,-9.11,-9.57,-9.71,0,*5D
1507518094.02,64289,10.13,72760.0,-9.13,-9.57,-9.57,0,*5A
1507518095.28,64290,10.13,72766.3,-9.13,-9.53,-9.53,0,*52
1507518096.52,64291,10.13,72760.0,-9.13,-9.57,-9.57,0,*53
1507518097.74,64292,10.13,72760.0,-9.13,-9.67,-9.57,0,*53
1507518099.0,64293,10.13,72758.8,-9.11,-9.67,-9.53,0,*54
1507518100.25,64294,10.13,72756.3,-9.13,-9.57,-9.53,0,*52
1507518101.47,64295,10.13,72756.3,-9.13,-9.67,-9.57,0,*54
1507518102.72,64296,10.13,72760.5,-9.13,-9.53,-9.57,0,*50
1507518103.99,64297,10.13,72766.0,-9.11,-9.57,-9.53,0,*53
1507518105.24,64298,10.13,72768.8,-9.11,-9.53,-9.67,0,*5F
1507518106.51,64299,10.13,72770.3,-9.11,-9.57,-9.57,0,*59
1507518107.75,64300,10.13,72768.5,-9.13,-9.57,-9.57,0,*5A
1507518108.98,64301,10.13,72764.0,-9.13,-9.57,-9.67,0,*58
1507518110.22,64302,10.13,72762.3,-9.13,-9.57,-9.57,0,*58
1507518111.49,64303,10.13,72756.5,-9.11,-9.57,-9.53,0,*5F
1507518112.74,64304,10.13,72760.0,-9.13,-9.57,-9.53,0,*5A
1507518114.01,64305,10.13,72754.0,-9.11,-9.57,-9.57,0,*5D
1507518115.28,64306,10.13,72764.0,-9.11,-9.53,-9.57,0,*5A
1507518116.53,64307,10.13,72770.5,-9.13,-9.57,-9.53,0,*59
1507518117.8,64308,10.13,72770.3,-9.11,-9.57,-9.57,0,*50
1507518119.08,64309,10.13,72776.5,-9.11,-9.57,-9.53,0,*55
1507518120.35,64310,10.13,72776.0,-9.11,-9.57,-9.57,0,*59
1507518121.59,64311,10.13,72764.0,-9.13,-9.57,-9.53,0,*5E
1507518122.85,64312,10.13,72776.5,-9.09,-9.53,-9.53,0,*52
1507518124.09,64313,10.13,72756.8,-9.13,-9.57,-9.57,0,*58
1507518125.34,64314,10.13,72760.3,-9.13,-9.57,-9.53,0,*5B
1507518126.61,64315,10.13,72758.5,-9.11,-9.57,-9.57,0,*5C
1507518127.85,64316,10.13,72772.5,-9.13,-9.57,-9.57,0,*5D
1507518129.13,64317,10.13,72764.8,-9.11,-9.57,-9.53,0,*5A
1507518130.4,64318,10.13,72748.0,-9.11,-9.53,-9.57,0,*55
1507518131.67,64319,10.13,72776.5,-9.11,-9.53,-9.57,0,*54
1507518132.94,64320,10.13,72756.8,-9.11,-9.57,-9.57,0,*5A
1507518134.17,64321,10.13,72738.5,-9.13,-9.67,-9.53,0,*5E
1507518135.42,64322,10.13,72746.0,-9.11,-9.57,-9.67,0,*5B
1507518136.69,64323,10.13,72762.0,-9.11,-9.53,-9.57,0,*5D
1507518137.96,64324,10.13,72758.5,-9.11,-9.57,-9.57,0,*5E
1507518139.22,64325,10.13,72768.8,-9.09,-9.53,-9.53,0,*56
1507518140.49,64326,10.13,72772.3,-9.11,-9.57,-9.57,0,*5C
1507518141.74,64327,10.13,72762.5,-9.11,-9.57,-9.67,0,*5E
1507518142.99,64328,10.13,72766.0,-9.11,-9.57,-9.67,0,*51
1507518144.24,64329,10.13,72768.5,-9.09,-9.49,-9.53,0,*51
1507518145.5,64330,10.13,72756.0,-9.09,-9.53,-9.53,0,*52
1507518146.76,64331,10.13,72760.8,-9.09,-9.53,-9.53,0,*53
1507518148.01,64332,10.13,72760.3,-9.09,-9.53,-9.53,0,*50
1507518149.27,64333,10.13,72760.8,-9.09,-9.49,-9.49,0,*51
1507518150.52,64334,10.13,72756.8,-9.09,-9.61,-9.53,0,*57
1507518151.78,64335,10.13,72774.0,-9.09,-9.61,-9.53,0,*56
1507518153.03,64336,10.13,72766.3,-9.09,-9.61,-9.53,0,*55
1507518154.29,64337,10.13,72756.0,-9.09,-9.53,-9.49,0,*5E
1507518155.54,64338,10.13,72752.8,-9.09,-9.61,-9.53,0,*5B
1507518156.8,64339,10.13,72740.0,-9.09,-9.61,-9.53,0,*5A
1507518158.05,64340,10.13,72730.3,-9.09,-9.53,-9.53,0,*55
1507518159.31,64341,10.13,72682.0,-9.09,-9.53,-9.53,0,*54
1507518160.57,64342,10.13,72708.5,-9.09,-9.53,-9.53,0,*57
1507518161.83,64343,10.13,72732.3,-9.09,-9.49,-9.53,0,*5D
1507518163.08,64344,10.13,72704.5,-9.09,-9.53,-9.61,0,*50
1507518164.33,64345,10.13,72710.8,-9.09,-9.53,-9.49,0,*5B
1507518165.59,64346,10.13,72720.8,-9.09,-9.53,-9.53,0,*53
1507518166.84,64347,10.13,72740.3,-9.09,-9.61,-9.53,0,*53
1507518168.1,64348,10.13,72758.0,-9.09,-9.49,-9.49,0,*5D
1507518169.35,64349,10.13,72746.0,-9.09,-9.61,-9.53,0,*5D
1507518170.61,64350,10.13,72766.0,-9.09,-9.61,-9.53,0,*55
1507518171.88,64351,10.13,72756.0,-9.07,-9.61,-9.53,0,*5A
1507518173.14,64352,10.13,72770.8,-9.09,-9.61,-9.53,0,*57
1507518174.39,64353,10.13,72786.3,-9.09,-9.61,-9.53,0,*56
1507518175.67,64354,10.13,72774.0,-9.07,-9.49,-9.53,0,*55
1507518176.92,64355,10.13,72782.0,-9.09,-9.53,-9.49,0,*5A
1507518178.18,64356,10.13,72780.8,-9.09,-9.61,-9.53,0,*53
1507518179.43,64357,10.13,72780.8,-9.09,-9.53,-9.49,0,*58
1507518180.69,64358,10.13,72772.0,-9.09,-9.53,-9.53,0,*5C
1507518181.96,64359,10.13,72768.0,-9.07,-9.53,-9.53,0,*53
1507518183.21,64360,10.13,72768.5,-9.09,-9.53,-9.53,0,*57
1507518184.47,64361,10.13,72764.5,-9.09,-9.53,-9.53,0,*56
1507518185.73,64362,10.13,72774.8,-9.09,-9.61,-9.53,0,*54
1507518186.98,64363,10.13,72762.0,-9.09,-9.53,-9.49,0,*5F
1507518188.25,64364,10.13,72766.0,-9.07,-9.53,-9.53,0,*5D
1507518189.53,64365,10.13,72758.0,-9.07,-9.53,-9.53,0,*5C
1507518190.79,64366,10.13,72758.8,-9.07,-9.53,-9.61,0,*5E
1507518192.05,64367,10.13,72756.5,-9.09,-9.53,-9.53,0,*50
1507518193.32,64368,10.13,72756.8,-9.07,-9.53,-9.49,0,*5A
1507518194.59,64369,10.13,72760.5,-9.07,-9.61,-9.49,0,*5A
1507518195.85,64370,10.13,72756.8,-9.09,-9.53,-9.53,0,*56
1507518197.12,64371,10.13,72752.3,-9.07,-9.53,-9.53,0,*59
1507518198.39,64372,10.13,72760.0,-9.07,-9.53,-9.53,0,*5A
1507518199.65,64373,10.13,72756.8,-9.09,-9.49,-9.53,0,*5E
1507518200.91,64374,10.13,72758.3,-9.09,-9.53,-9.53,0,*52
1507518202.18,64375,10.13,72754.3,-9.07,-9.49,-9.49,0,*5D
1507518203.45,64376,10.13,72758.5,-9.07,-9.61,-9.49,0,*54
1507518204.7,64377,10.13,72756.8,-9.09,-9.53,-9.61,0,*50
1507518205.97,64378,10.13,72756.0,-9.07,-9.53,-9.53,0,*50
1507518207.24,64379,10.13,72756.0,-9.07,-9.53,-9.61,0,*50
1507518208.52,64380,10.13,72762.8,-9.07,-9.53,-9.53,0,*57
1507518209.79,64381,10.13,72760.8,-9.07,-9.53,-9.53,0,*56
1507518211.06,64382,10.13,72756.5,-9.07,-9.53,-9.49,0,*5E
1507518212.33,64383,10.13,72764.3,-9.07,-9.61,-9.53,0,*55
1507518213.6,64384,10.13,72762.0,-9.07,-9.49,-9.49,0,*53
1507518214.87,64385,10.13,72774.8,-9.07,-9.53,-9.53,0,*52
1507518216.15,64386,10.13,72772.5,-9.07,-9.53,-9.53,0,*51
1507518217.42,64387,10.13,72772.5,-9.07,-9.61,-9.53,0,*51
1507518218.68,64388,10.13,72776.5,-9.09,-9.53,-9.53,0,*51
1507518219.95,64389,10.13,72772.5,-9.07,-9.49,-9.53,0,*55
1507518221.23,64390,10.13,72774.3,-9.07,-9.49,-9.53,0,*5D
1507518222.47,64391,10.13,72770.8,-9.05,-9.57,-9.49,0,*5A
1507518223.72,64392,10.13,72772.8,-9.05,-9.49,-9.45,0,*5A
1507518224.98,64393,10.13,72764.5,-9.05,-9.49,-9.49,0,*57
1507518226.22,64394,10.13,72768.5,-9.05,-9.57,-9.49,0,*5F
1507518227.49,64395,10.13,72768.0,-9.07,-9.53,-9.53,0,*53
1507518228.76,64396,10.13,72770.8,-9.07,-9.49,-9.61,0,*5A
1507518230.04,64397,10.13,72766.3,-9.07,-9.53,-9.53,0,*51
1507518231.31,64398,10.13,72774.3,-9.07,-9.53,-9.53,0,*5E
1507518232.56,64399,10.13,72768.3,-9.05,-9.49,-9.49,0,*5D
1507518233.81,64400,10.13,72776.8,-9.05,-9.49,-9.57,0,*55
1507518235.06,64401,10.13,72778.3,-9.05,-9.49,-9.57,0,*54
1507518236.31,64402,10.13,72772.0,-9.05,-9.45,-9.49,0,*54
1507518237.56,64403,10.13,72772.0,-9.05,-9.49,-9.49,0,*59
1507518238.81,64404,10.13,72770.8,-9.05,-9.49,-9.49,0,*5E
1507518240.09,64405,10.13,72764.0,-9.07,-9.49,-9.53,0,*56
1507518241.36,64406,10.13,72764.5,-9.07,-9.49,-9.53,0,*55
1507518242.62,64407,10.13,72766.8,-9.05,-9.49,-9.49,0,*5D
1507518243.87,64408,10.13,72768.8,-9.05,-9.49,-9.45,0,*5E
1507518245.14,64409,10.13,72770.0,-9.07,-9.49,-9.53,0,*5A
1507518246.42,64410,10.13,72770.5,-9.03,-9.49,-9.49,0,*5D
1507518247.67,64411,10.13,72764.5,-9.05,-9.49,-9.49,0,*5A
1507518248.92,64412,10.13,72762.8,-9.05,-9.45,-9.49,0,*55
1507518250.17,64413,10.13,72768.0,-9.05,-9.49,-9.49,0,*58
1507518251.42,64414,10.13,72772.3,-9.05,-9.49,-9.49,0,*5F
1507518252.68,64415,10.13,72752.8,-9.05,-9.49,-9.49,0,*5E
1507518253.93,64416,10.13,72766.5,-9.05,-9.49,-9.49,0,*5D
1507518255.2,64417,10.13,72758.8,-9.03,-9.49,-9.49,0,*5A
1507518256.45,64418,10.13,72764.5,-9.05,-9.45,-9.49,0,*5F
1507518257.71,64419,10.13,72766.8,-9.05,-9.49,-9.45,0,*5E
1507518258.98,64420,10.13,72754.5,-9.03,-9.49,-9.49,0,*5E
1507518260.23,64421,10.13,72756.8,-9.05,-9.49,-9.49,0,*59
1507518261.49,64422,10.13,72756.0,-9.05,-9.49,-9.49,0,*5A
1507518262.74,64423,10.13,72762.3,-9.05,-9.49,-9.49,0,*5B
1507518264.01,64424,10.13,72772.0,-9.03,-9.45,-9.49,0,*56
1507518265.27,64425,10.13,72764.5,-9.05,-9.45,-9.49,0,*51
1507518266.54,64426,10.13,72764.0,-9.03,-9.57,-9.49,0,*57
1507518267.81,64427,10.13,72770.8,-9.03,-9.45,-9.49,0,*55
1507518269.09,64428,10.13,72772.3,-9.03,-9.49,-9.57,0,*59
1507518270.36,64429,10.13,72770.0,-9.03,-9.45,-9.45,0,*57
1507518271.64,64430,10.13,72766.0,-9.03,-9.49,-9.49,0,*5F
1507518272.89,64431,10.13,72760.3,-9.05,-9.49,-9.49,0,*58
1507518274.17,64432,10.13,72758.5,-9.03,-9.49,-9.45,0,*51
1507518275.44,64433,10.13,72772.3,-9.03,-9.49,-9.49,0,*5C
1507518276.72,64434,10.13,72764.5,-9.03,-9.49,-9.49,0,*5B
1507518277.99,64435,10.13,72774.8,-9.03,-9.49,-9.49,0,*5A
1507518279.24,64436,10.13,72764.8,-9.05,-9.49,-9.45,0,*53
1507518280.52,64437,10.13,72762.0,-9.03,-9.49,-9.49,0,*58
1507518281.8,64438,10.13,72752.0,-9.03,-9.49,-9.49,0,*57
1507518283.07,64439,10.13,72768.5,-9.03,-9.45,-9.49,0,*5A
1507518284.35,64440,10.13,72768.8,-9.03,-9.49,-9.45,0,*54
1507518285.62,64441,10.13,72752.8,-9.03,-9.49,-9.49,0,*59
1507518286.9,64442,10.13,72754.8,-9.03,-9.49,-9.45,0,*56
1507518288.18,64443,10.13,72744.3,-9.03,-9.49,-9.49,0,*5B
1507518289.45,64444,10.13,72752.8,-9.03,-9.49,-9.45,0,*50
1507518290.72,64445,10.13,72752.8,-9.03,-9.57,-9.45,0,*5E
1507518292.0,64446,10.13,72760.3,-9.03,-9.45,-9.49,0,*52
1507518293.28,64447,10.13,72762.8,-9.03,-9.45,-9.45,0,*5F
1507518294.56,64448,10.13,72756.0,-9.03,-9.45,-9.49,0,*5C
1507518295.83,64449,10.13,72752.3,-9.03,-9.49,-9.45,0,*5D
1507518297.11,64450,10.13,72756.0,-9.03,-9.49,-9.49,0,*59
1507518298.38,64451,10.13,72750.8,-9.03,-9.49,-9.49,0,*58
1507518299.66,64452,10.13,72748.0,-9.03,-9.49,-9.49,0,*5B
1507518300.94,64453,10.13,72758.8,-9.03,-9.45,-9.45,0,*5A
1507518302.21,64454,10.13,72752.5,-8.99,-9.45,-9.45,0,*5F
1507518303.49,64455,10.13,72764.3,-8.99,-9.45,-9.41,0,*5A
1507518304.76,64456,10.13,72764.0,-8.99,-9.53,-9.45,0,*5A
1507518306.01,64457,10.13,72750.5,-8.97,-9.45,-9.45,0,*52
1507518307.28,64458,10.13,72748.0,-8.99,-9.45,-9.45,0,*53
1507518308.56,64459,10.13,72748.8,-8.99,-9.53,-9.45,0,*55
1507518309.83,64460,10.13,72756.3,-8.99,-9.41,-9.41,0,*58
1507518311.11,64461,10.13,72758.5,-8.99,-9.45,-9.45,0,*59
1507518312.38,64462,10.13,72766.5,-8.99,-9.45,-9.45,0,*5A
1507518313.66,64463,10.13,72768.5,-8.99,-9.45,-9.45,0,*5B
1507518314.93,64464,10.13,72768.8,-8.99,-9.45,-9.45,0,*5C
1507518316.21,64465,10.13,72764.8,-8.99,-9.45,-9.45,0,*5D
1507518317.49,64466,10.13,72760.3,-8.99,-9.45,-9.53,0,*59
1507518318.74,64467,10.13,72762.5,-8.97,-9.45,-9.45,0,*51
1507518319.99,64468,10.13,72758.3,-8.97,-9.45,-9.45,0,*5E
1507518321.26,64469,10.13,72758.5,-8.99,-9.45,-9.41,0,*55
1507518322.51,64470,10.13,72748.3,-8.97,-9.45,-9.41,0,*53
1507518323.79,64471,10.13,72756.3,-8.99,-9.45,-9.45,0,*58
1507518325.07,64472,10.13,72756.0,-8.99,-9.41,-9.53,0,*58
1507518326.32,64473,10.13,72746.8,-8.97,-9.53,-9.45,0,*53
1507518327.59,64474,10.13,72742.3,-8.99,-9.45,-9.41,0,*59
1507518328.84,64475,10.13,72750.3,-8.97,-9.53,-9.45,0,*55
1507518330.11,64476,10.13,72752.3,-8.99,-9.53,-9.45,0,*58
1507518331.38,64477,10.13,72736.3,-8.99,-9.45,-9.41,0,*5A
1507518332.64,64478,10.13,72750.0,-8.97,-9.41,-9.45,0,*5B
1507518333.91,64479,10.13,72742.0,-8.99,-9.45,-9.45,0,*50
1507518335.16,64480,10.13,72738.3,-8.97,-9.45,-9.41,0,*5C
1507518336.42,64481,10.13,72728.5,-8.97,-9.41,-9.41,0,*59
1507518337.69,64482,10.13,72732.3,-8.99,-9.45,-9.45,0,*54
1507518338.97,64483,10.13,72738.5,-8.99,-9.45,-9.45,0,*55
1507518340.22,64484,10.13,72732.8,-8.97,-9.45,-9.45,0,*5C
1507518341.47,64485,10.13,72726.3,-8.97,-9.45,-9.41,0,*59
1507518342.72,64486,10.13,72742.8,-8.97,-9.45,-9.45,0,*5E
1507518344.0,64487,10.13,72750.3,-8.99,-9.45,-9.45,0,*51
1507518345.27,64488,10.13,72738.5,-8.99,-9.45,-9.45,0,*5E
1507518346.55,64489,10.13,72740.3,-8.99,-9.41,-9.41,0,*5F
1507518347.83,64490,10.13,72742.8,-8.99,-9.41,-9.41,0,*57
1507518349.08,64491,10.13,72732.5,-8.97,-9.45,-9.45,0,*58
1507518350.33,64492,10.13,72736.5,-8.97,-9.41,-9.45,0,*5F
1507518351.59,64493,10.13,72738.3,-8.97,-9.45,-9.45,0,*5A
1507518352.86,64494,10.13,72738.8,-8.99,-9.45,-9.45,0,*53
1507518354.11,64495,10.13,72744.8,-8.97,-9.45,-9.45,0,*5C
1507518355.36,64496,10.13,72746.8,-8.97,-9.53,-9.45,0,*58
1507518356.62,64497,10.13,72750.5,-8.97,-9.41,-9.45,0,*5A
1507518357.87,64498,10.13,72762.8,-8.97,-9.45,-9.45,0,*51
1507518359.14,64499,10.13,72746.8,-8.99,-9.45,-9.45,0,*5E
1507518360.4,64500,10.13,72750.5,-8.97,-9.45,-9.45,0,*51
1507518361.65,64501,10.13,72752.5,-8.97,-9.45,-9.45,0,*50
1507518362.9,64502,10.13,72750.8,-8.97,-9.45,-9.41,0,*57
1507518364.17,64503,10.13,72758.8,-8.99,-9.45,-9.45,0,*5C
1507518365.43,64504,10.13,72750.8,-8.97,-9.45,-9.45,0,*55
1507518366.67,64505,10.13,72776.8,-8.97,-9.53,-9.41,0,*57
1507518367.92,64506,10.13,72770.3,-8.97,-9.45,-9.45,0,*57
1507518369.2,64507,10.13,72758.8,-8.99,-9.41,-9.41,0,*58
1507518370.45,64508,10.13,72754.8,-8.97,-9.45,-9.45,0,*59
1507518371.7,64509,10.13,72770.8,-8.97,-9.45,-9.45,0,*58
1507518372.96,64510,10.13,72772.0,-8.97,-9.45,-9.45,0,*50
1507518374.23,64511,10.13,72758.3,-8.95,-9.41,-9.41,0,*53
1507518375.51,64512,10.13,72724.5,-8.95,-9.37,-9.41,0,*51
1507518376.76,64513,10.13,72770.0,-8.97,-9.45,-9.41,0,*57
1507518378.02,64514,10.13,72766.5,-8.97,-9.41,-9.45,0,*50
1507518379.26,64515,10.13,72760.5,-8.97,-9.53,-9.45,0,*52
1507518380.52,64516,10.13,72766.8,-8.97,-9.45,-9.45,0,*56
1507518381.77,64517,10.13,72766.3,-8.97,-9.45,-9.45,0,*57
1507518383.02,64518,10.13,72758.8,-8.97,-9.45,-9.45,0,*58
1507518384.27,64519,10.13,72758.3,-8.97,-9.53,-9.45,0,*5E
1507518385.52,64520,10.13,72748.8,-8.97,-9.53,-9.45,0,*54
1507518386.77,64521,10.13,72748.5,-8.97,-9.45,-9.45,0,*52
1507518388.02,64522,10.13,72750.3,-8.97,-9.41,-9.45,0,*55
1507518389.28,64523,10.13,72704.5,-8.97,-9.45,-9.45,0,*50
1507518390.55,64524,10.13,72720.8,-8.95,-9.49,-9.41,0,*5D
1507518391.82,64525,10.13,72726.3,-8.95,-9.41,-9.41,0,*54
1507518393.1,64526,10.13,72742.0,-8.95,-9.41,-9.41,0,*57
1507518394.37,64527,10.13,72760.0,-8.95,-9.49,-9.41,0,*5E
1507518395.64,64528,10.13,72744.8,-8.95,-9.49,-9.41,0,*51
1507518396.92,64529,10.13,72748.8,-8.95,-9.49,-9.37,0,*51
1507518398.19,64530,10.13,72748.8,-8.95,-9.49,-9.41,0,*58
1507518399.44,64531,10.13,72746.5,-8.97,-9.41,-9.41,0,*53
1507518400.69,64532,10.13,72746.0,-8.97,-9.45,-9.45,0,*50
1507518401.95,64533,10.13,72736.0,-8.97,-9.45,-9.45,0,*51
1507518403.22,64534,10.13,72744.8,-8.95,-9.41,-9.41,0,*54
1507518404.5,64535,10.13,72716.8,-8.95,-9.41,-9.41,0,*55
1507518405.75,64536,10.13,72754.0,-8.97,-9.45,-9.41,0,*50
1507518407.0,64537,10.13,72728.3,-8.93,-9.49,-9.41,0,*59
1507518408.27,64538,10.13,72732.8,-8.95,-9.49,-9.41,0,*50
1507518409.55,64539,10.13,72748.8,-8.95,-9.41,-9.41,0,*59
1507518410.8,64540,10.13,72748.3,-8.93,-9.41,-9.41,0,*51
1507518412.05,64541,10.13,72748.3,-8.93,-9.41,-9.41,0,*50
1507518413.33,64542,10.13,72762.5,-8.95,-9.41,-9.41,0,*55
1507518414.58,64543,10.13,72760.8,-8.93,-9.49,-9.41,0,*5A
1507518415.86,64544,10.13,72756.0,-8.95,-9.37,-9.37,0,*53
1507518417.14,64545,10.13,72762.8,-8.95,-9.37,-9.41,0,*53
1507518418.41,64546,10.13,72750.8,-8.95,-9.49,-9.41,0,*59
1507518419.68,64547,10.13,72744.5,-8.95,-9.49,-9.41,0,*58
1507518420.92,64548,10.13,72766.5,-8.93,-9.53,-9.41,0,*5A
1507518422.18,64549,10.13,72768.0,-8.93,-9.37,-9.41,0,*59
1507518423.45,64550,10.13,72748.8,-8.95,-9.49,-9.49,0,*56
1507518424.7,64551,10.13,72746.5,-8.93,-9.37,-9.49,0,*58
1507518425.96,64552,10.13,72750.3,-8.93,-9.41,-9.41,0,*52
1507518427.21,64553,10.13,72748.5,-8.93,-9.49,-9.37,0,*5A
1507518428.46,64554,10.13,72748.5,-8.93,-9.49,-9.41,0,*5C
1507518429.71,64555,10.13,72754.0,-8.93,-9.41,-9.37,0,*54
1507518430.99,64556,10.13,72764.5,-8.95,-9.49,-9.41,0,*58
1507518432.25,64557,10.13,72752.3,-8.95,-9.53,-9.49,0,*5A
1507518433.53,64558,10.13,72738.3,-8.95,-9.41,-9.49,0,*56
1507518434.81,64559,10.13,72748.8,-8.95,-9.41,-9.37,0,*5E
1507518436.09,64560,10.13,72760.3,-8.95,-9.37,-9.37,0,*55
1507518437.37,64561,10.13,72746.0,-8.95,-9.41,-9.41,0,*54
1507518438.62,64562,10.13,72740.3,-8.93,-9.49,-9.41,0,*59
1507518439.87,64563,10.13,72738.0,-8.93,-9.41,-9.41,0,*50
1507518441.12,64564,10.13,72740.8,-8.93,-9.49,-9.41,0,*5F
1507518442.37,64565,10.13,72752.8,-8.93,-9.49,-9.41,0,*5E
1507518443.62,64566,10.13,72756.5,-8.93,-9.49,-9.49,0,*55
1507518444.87,64567,10.13,72744.8,-8.93,-9.49,-9.37,0,*5D
1507518446.12,64568,10.13,72748.0,-8.93,-9.41,-9.49,0,*53
1507518447.38,64569,10.13,72754.8,-8.93,-9.41,-9.41,0,*5A
1507518448.65,64570,10.13,72756.3,-8.95,-9.41,-9.41,0,*54
1507518449.9,64571,10.13,72768.0,-8.93,-9.49,-9.41,0,*5B
1507518451.15,64572,10.13,72748.5,-8.93,-9.49,-9.37,0,*59
1507518452.42,64573,10.13,72752.0,-8.95,-9.49,-9.41,0,*5F
1507518453.68,64574,10.13,72760.0,-8.93,-9.41,-9.37,0,*57
1507518454.95,64575,10.13,72762.8,-8.95,-9.49,-9.41,0,*59
1507518456.23,64576,10.13,72760.8,-8.95,-9.37,-9.41,0,*53
1507518457.48,64577,10.13,72756.0,-8.93,-9.41,-9.49,0,*5D
1507518458.74,64578,10.13,72744.5,-8.93,-9.41,-9.41,0,*5A
1507518459.99,64579,10.13,72758.0,-8.93,-9.41,-9.37,0,*5A
1507518461.25,64580,10.13,72760.0,-8.93,-9.41,-9.41,0,*5D
1507518462.5,64581,10.13,72758.5,-8.93,-9.41,-9.41,0,*5C
1507518463.78,64582,10.13,72754.8,-8.95,-9.41,-9.49,0,*51
1507518465.03,64583,10.13,72766.5,-8.93,-9.41,-9.41,0,*5E
1507518466.28,64584,10.13,72760.8,-8.93,-9.41,-9.49,0,*51
1507518467.54,64585,10.13,72748.5,-8.93,-9.37,-9.49,0,*51
1507518468.79,64586,10.13,72750.5,-8.93,-9.41,-9.49,0,*53
1507518470.04,64587,10.13,72750.8,-8.91,-9.31,-9.37,0,*5E
1507518471.3,64588,10.13,72750.3,-8.93,-9.41,-9.49,0,*5D
1507518472.55,64589,10.13,72758.0,-8.93,-9.41,-9.41,0,*54
1507518473.83,64590,10.13,72748.8,-8.95,-9.41,-9.49,0,*52
1507518475.07,64591,10.13,72746.0,-8.93,-9.49,-9.49,0,*5D
1507518476.32,64592,10.13,72750.3,-8.93,-9.49,-9.49,0,*5E
1507518477.57,64593,10.13,72744.3,-8.93,-9.49,-9.41,0,*57
1507518478.82,64594,10.13,72744.8,-8.93,-9.49,-9.37,0,*51
1507518480.07,64595,10.13,72748.8,-8.93,-9.49,-9.41,0,*51
1507518481.32,64596,10.13,72736.5,-8.93,-9.41,-9.41,0,*5A
1507518482.56,64597,10.13,72744.0,-8.91,-9.45,-9.31,0,*5A
1507518483.84,64598,10.13,72746.0,-8.91,-9.45,-9.37,0,*53
1507518485.11,64599,10.13,72746.0,-8.91,-9.45,-9.37,0,*52
1507518486.35,64600,10.13,72740.3,-8.91,-9.45,-9.31,0,*57
1507518487.62,64601,10.13,72744.5,-8.91,-9.37,-9.37,0,*55
1507518488.87,64602,10.13,72748.5,-8.93,-9.49,-9.41,0,*5C
1507518490.14,64603,10.13,72736.0,-8.95,-9.49,-9.41,0,*5B
1507518491.42,64604,10.13,72744.5,-8.91,-9.45,-9.37,0,*55
1507518492.69,64605,10.13,72738.0,-8.91,-9.45,-9.45,0,*51
1507518493.97,64606,10.13,72740.3,-8.91,-9.37,-9.45,0,*57
1507518495.24,64607,10.13,72742.5,-8.91,-9.45,-9.37,0,*56
1507518496.51,64608,10.13,72740.3,-8.91,-9.45,-9.37,0,*59
1507518497.78,64609,10.13,72728.8,-8.91,-9.49,-9.45,0,*51
1507518499.06,64610,10.13,72734.5,-8.91,-9.37,-9.37,0,*55
1507518500.33,64611,10.13,72738.0,-8.91,-9.37,-9.37,0,*54
1507518501.61,64612,10.13,72738.3,-8.91,-9.45,-9.45,0,*57
1507518502.88,64613,10.13,72728.0,-8.91,-9.45,-9.45,0,*56
1507518504.15,64614,10.13,72732.0,-8.91,-9.45,-9.37,0,*54
1507518505.43,64615,10.13,72734.0,-8.91,-9.45,-9.37,0,*55
1507518506.7,64616,10.13,72732.0,-8.91,-9.37,-9.45,0,*56
1507518507.98,64617,10.13,72734.8,-8.91,-9.37,-9.45,0,*57
1507518509.25,64618,10.13,72742.3,-8.91,-9.45,-9.37,0,*58
1507518510.52,64619,10.13,72750.8,-8.91,-9.49,-9.45,0,*50
1507518511.8,64620,10.13,72740.3,-8.91,-9.37,-9.45,0,*53
1507518513.07,64621,10.13,72740.3,-8.91,-9.37,-9.37,0,*57
1507518514.32,64622,10.13,72744.5,-8.89,-9.41,-9.41,0,*5D
1507518515.6,64623,10.13,72744.0,-8.91,-9.37,-9.37,0,*55
1507518516.88,64624,10.13,72740.3,-8.91,-9.37,-9.37,0,*52
1507518518.15,64625,10.13,72750.5,-8.91,-9.37,-9.37,0,*53
1507518519.43,64626,10.13,72744.0,-8.91,-9.37,-9.45,0,*55
1507518520.7,64627,10.13,72746.0,-8.91,-9.45,-9.45,0,*51
1507518521.97,64628,10.13,72748.8,-8.91,-9.45,-9.37,0,*5B